Theta_e
308 308 308 307 309 310 311 312 313 313 312 312 312 312 313 315 316 318 317 320 319 320 319 318 318 319 320 318 319 316 316 314 317 324 324 329 328 328 337 339 338 336 332 337 343
308 307 307 308 310 311 312 312 313 313 313 312 312 312 313 315 316 318 321 322 319 318 318 318 318 321 319 318 318 315 315 318 319 319 322 320 322 326 338 339 337 338 338 342 343
307 307 308 309 310 311 312 313 313 313 313 312 312 312 314 316 319 320 322 320 319 318 318 320 321 323 323 320 317 317 316 319 318 319 319 318 319 320 325 329 340 340 336 335 344
307 307 309 310 311 312 313 313 313 313 313 312 312 313 316 318 319 321 319 319 319 318 318 320 320 321 318 318 316 319 317 317 319 317 319 320 319 319 321 327 331 331 331 337 336
308 309 310 311 312 312 313 313 313 313 312 312 312 313 317 317 317 321 319 319 319 319 319 320 321 320 320 318 318 319 319 317 316 317 318 319 319 319 320 331 331 331 330 332 336
309 310 311 312 312 312 313 313 313 313 312 312 312 313 321 317 322 320 320 320 320 321 320 319 319 316 318 318 319 320 318 318 317 316 319 319 320 321 320 331 332 331 330 330 333
310 311 312 312 312 312 312 313 313 313 312 312 313 313 318 313 322 320 319 321 322 320 320 321 320 319 318 318 320 319 320 317 318 317 317 319 321 321 321 331 332 331 331 331 333
310 311 311 312 311 312 312 312 312 312 313 313 313 314 315 322 323 321 321 322 322 322 322 323 322 319 319 318 316 320 317 317 316 318 318 320 323 322 322 331 332 331 331 332 331
309 310 311 310 311 311 310 311 312 313 314 315 314 318 318 322 320 322 322 322 322 323 323 323 321 318 318 317 315 316 318 319 321 317 319 319 323 323 322 331 331 331 330 331 331
308 309 309 310 310 310 315 315 314 314 315 319 316 317 318 321 322 322 322 323 322 321 321 321 317 318 317 315 319 320 319 319 323 322 319 322 324 323 323 328 329 330 330 330 331
307 308 309 309 310 314 317 321 316 315 317 317 319 319 321 322 322 322 323 322 322 321 321 320 319 320 321 321 320 320 321 322 322 321 321 323 323 323 322 324 326 328 329 329 330
308 308 308 309 312 315 317 318 323 322 319 319 316 318 320 322 321 321 323 323 324 322 320 318 321 322 321 321 319 318 318 318 320 319 319 322 325 323 322 322 325 326 327 327 326
310 309 309 311 317 318 320 322 324 323 320 322 320 319 320 322 321 323 323 322 323 323 321 319 322 322 323 322 322 319 318 319 319 317 317 317 316 324 324 322 323 324 324 323 323
312 310 311 317 320 321 322 325 323 325 321 324 323 320 321 320 322 323 323 324 324 324 322 321 322 322 321 323 322 323 320 320 318 316 315 316 314 313 323 323 322 321 319 319 319
314 313 315 319 318 318 324 324 322 324 334 329 320 322 320 321 322 323 324 324 324 323 321 322 323 322 322 323 322 322 321 320 319 317 316 315 314 315 323 323 322 319 320 319 318
316 314 317 319 322 324 324 324 323 322 328 323 323 323 321 321 324 323 323 323 324 325 325 324 322 322 323 323 319 319 318 315 315 313 316 317 317 323 322 322 320 320 320 319 315
318 314 315 318 321 322 323 321 321 324 324 325 323 322 321 322 324 324 323 324 324 327 326 324 322 323 323 322 319 316 313 314 316 321 318 316 325 324 322 320 319 319 318 314 314
315 315 314 317 320 320 324 320 325 327 327 327 324 322 322 322 323 325 324 324 325 324 324 326 326 324 324 321 320 317 314 315 321 320 316 319 327 323 320 320 318 317 315 315 315
312 322 323 315 318 322 321 326 324 327 331 328 326 322 322 323 324 325 325 328 326 324 324 323 326 323 320 319 318 317 318 315 317 320 318 320 324 321 321 320 318 315 316 317 316
315 322 324 323 322 324 322 326 329 330 331 327 328 330 330 327 326 325 329 328 326 324 321 325 324 325 322 321 317 314 316 313 316 325 322 318 322 323 321 319 316 314 312 312 310
321 324 330 328 326 320 323 325 327 327 328 329 329 330 330 329 328 327 330 328 327 323 322 324 323 324 325 322 319 318 319 313 314 317 318 321 319 316 319 317 314 314 312 311 307
314 323 327 328 320 320 323 326 327 327 325 326 327 328 329 327 326 329 330 327 324 323 325 325 323 326 327 323 319 316 314 314 317 318 319 320 320 318 314 314 312 312 310 308 309
310 314 321 326 323 322 323 328 329 327 326 327 328 327 325 326 324 328 328 325 324 327 328 324 321 321 319 319 320 322 322 314 314 315 318 318 318 315 314 313 313 313 310 309 311
313 322 319 319 320 323 322 324 330 325 326 326 326 325 324 325 324 324 326 325 325 320 323 322 320 323 321 322 323 323 322 321 317 317 319 320 320 316 314 313 313 312 309 311 309
318 321 317 322 321 320 324 327 328 328 324 324 324 325 324 325 325 327 324 324 324 322 320 316 316 322 322 323 323 320 319 319 317 316 319 318 317 317 315 314 314 311 311 310 309
318 318 316 319 318 318 319 324 326 325 325 324 324 324 324 322 322 326 325 323 324 322 320 318 320 324 325 324 325 324 322 320 321 319 317 317 317 316 315 313 312 311 311 310 310
318 318 315 316 318 318 319 320 321 322 325 325 324 323 322 324 321 319 319 319 322 320 320 322 320 322 323 325 324 321 319 322 319 317 316 315 317 315 315 314 313 311 310 310 311
Wind_Speed
3 2 2 1 0 1 2 3 4 6 9 12 14 16 17 16 11 6 5 6 6 10 13 14 12 12 12 3 3 4 4 4 5 9 3 4 4 7 8 8 4 5 6 27 30
2 2 1 1 0 2 3 4 5 7 10 13 15 16 16 15 12 10 11 10 11 9 8 6 5 9 5 5 4 5 3 4 4 1 12 5 11 7 7 4 4 4 24 28 24
2 1 1 1 1 2 3 5 6 9 11 14 15 16 15 11 4 6 5 9 8 6 6 7 8 2 4 3 5 4 6 5 1 12 9 9 11 2 12 5 3 9 16 13 17
1 2 2 0 2 3 4 6 8 10 12 14 15 16 12 5 1 5 7 5 6 8 8 4 3 4 4 6 3 2 6 6 4 7 6 8 6 7 15 13 19 24 22 20 13
3 2 1 1 2 4 6 8 9 10 12 14 15 15 4 4 8 6 6 4 9 11 10 0 4 3 3 6 3 5 6 5 9 12 8 8 7 9 18 21 21 25 24 18 18
3 2 1 1 3 5 7 9 10 11 13 14 15 14 3 4 4 8 1 6 11 12 9 5 5 8 3 4 3 2 5 5 4 9 6 13 3 7 10 24 21 23 19 18 20
2 2 2 3 4 6 8 10 11 12 13 13 12 10 2 11 3 6 11 11 14 16 3 9 4 5 3 7 3 1 3 4 2 7 6 11 5 5 10 21 21 21 18 18 22
2 3 3 4 6 8 9 11 12 13 13 12 12 5 6 14 12 11 9 6 11 14 8 11 12 3 2 4 9 6 4 4 4 4 3 8 3 3 10 20 16 18 17 17 15
3 4 5 6 8 9 11 13 13 14 13 12 6 2 8 13 4 6 5 5 9 9 9 9 5 1 7 5 6 7 5 4 3 6 6 6 5 4 9 18 14 14 14 16 15
5 5 6 7 8 10 12 12 8 12 3 3 1 3 6 3 3 3 4 8 3 7 6 5 6 4 4 5 1 3 5 6 4 3 4 5 3 5 6 15 14 13 12 13 13
4 5 6 6 8 10 10 4 5 4 1 7 5 5 6 4 1 4 5 5 3 3 2 4 6 1 5 3 4 8 6 3 3 6 4 4 7 8 8 11 11 11 11 10 11
3 4 5 6 8 10 11 1 6 1 6 8 13 6 18 10 2 7 3 1 3 5 3 7 1 4 7 9 10 9 8 6 4 10 6 6 6 7 3 4 11 13 10 9 7
2 3 4 6 9 8 6 12 11 17 1 8 6 5 6 3 1 3 3 2 1 3 3 6 4 7 9 8 8 4 6 3 3 5 5 3 6 5 3 7 7 7 10 8 11
3 3 4 6 5 6 8 15 4 2 4 6 3 5 3 4 2 1 2 3 6 3 3 4 2 9 8 6 4 3 3 3 5 4 2 3 4 5 5 7 8 8 8 8 7
6 3 4 5 11 6 14 17 5 4 2 3 4 4 8 6 6 3 3 4 2 4 6 5 3 5 6 2 1 5 3 3 3 3 2 4 3 7 6 4 1 1 4 5 6
9 4 5 6 7 9 23 10 2 5 4 3 5 5 5 3 2 4 2 2 1 3 4 3 0 4 3 3 7 2 5 6 5 3 3 4 4 6 3 2 4 5 6 5 6
13 6 7 7 4 14 21 5 5 3 6 3 5 5 6 5 5 6 4 1 2 3 4 7 5 2 3 6 8 12 7 5 6 5 4 5 6 4 5 5 7 7 5 7 6
15 5 7 13 11 14 8 5 2 5 6 6 7 6 8 8 6 7 5 4 6 4 2 3 5 1 1 3 1 2 6 5 2 1 5 6 3 4 5 4 5 6 8 6 6
16 4 5 10 8 7 5 3 6 4 4 7 4 4 4 3 6 4 4 3 4 3 5 3 2 2 4 2 5 4 3 4 4 2 2 2 2 5 2 3 3 7 7 5 3
13 7 7 9 4 2 4 4 4 3 5 3 4 6 7 3 4 4 3 4 3 4 4 1 1 2 2 2 2 5 3 3 3 0 3 3 1 4 5 5 6 6 6 4 6
5 4 5 13 9 5 3 6 5 5 1 4 2 4 3 3 5 4 4 5 5 3 8 3 4 6 2 2 4 2 2 5 4 5 5 1 5 6 4 5 7 4 3 1 4
6 2 3 16 3 1 2 4 3 6 1 1 3 4 2 5 4 4 3 2 2 2 3 2 4 2 6 6 3 4 5 5 5 4 1 4 6 5 8 6 7 4 4 5 5
2 3 5 7 2 3 5 6 6 6 2 2 4 4 2 2 4 5 2 1 5 3 6 2 2 3 9 6 6 3 3 4 4 3 6 5 6 2 5 7 3 3 3 2 3
2 4 4 4 2 0 4 6 4 1 3 4 4 4 4 2 1 4 4 3 4 3 5 7 3 6 6 5 2 5 6 7 6 4 4 6 5 4 6 4 4 4 2 2 5
2 3 1 3 4 5 2 4 3 4 3 2 2 4 5 2 1 1 4 3 4 3 2 4 3 3 5 6 4 6 9 9 6 7 6 5 6 1 3 2 4 3 3 6 6
2 3 5 4 4 5 3 3 3 4 3 4 5 7 5 6 7 4 7 4 4 1 3 2 2 1 4 7 6 7 10 8 6 3 5 6 3 3 3 3 3 1 3 5 5
7 5 3 4 5 3 2 6 9 10 4 4 10 4 6 1 6 7 6 7 9 9 6 6 4 3 4 5 6 7 6 3 3 1 4 2 4 3 2 6 3 6 6 5 3
Wind_Direction
306 314 305 258 236 314 319 318 330 342 342 343 342 341 337 339 334 305 255 245 274 279 281 292 293 298 310 273 199 107 39 295 273 83 353 62 119 153 155 133 230 179 94 103 111
303 306 256 183 262 314 310 311 326 336 341 343 342 345 340 338 326 271 256 268 271 268 278 298 327 0 330 293 344 86 92 270 214 292 126 110 94 111 110 103 30 48 78 98 116
288 243 156 167 300 306 308 312 321 332 341 341 345 345 337 332 339 254 238 227 250 281 303 303 303 2 302 226 220 187 172 236 35 121 116 96 71 117 115 67 50 95 92 90 105
195 145 148 207 302 307 308 310 315 328 337 342 345 347 344 346 34 277 226 241 275 283 297 316 36 350 287 302 238 151 211 192 107 119 97 104 117 62 73 87 90 91 94 94 111
140 146 167 259 299 306 307 307 311 322 332 339 346 349 344 4 252 247 223 241 270 275 268 219 304 153 247 281 319 106 170 104 114 113 117 124 109 129 101 106 95 89 85 83 89
145 161 213 280 302 306 303 302 306 314 325 334 345 354 13 329 315 208 151 257 260 272 273 187 234 213 225 270 64 160 93 136 161 140 128 117 173 87 109 116 103 97 92 93 95
165 201 249 284 298 300 299 299 301 308 317 329 342 353 357 244 241 260 266 268 284 266 262 302 314 39 331 332 308 169 39 29 205 166 141 111 25 131 124 102 108 108 109 104 101
230 250 269 288 296 297 297 295 295 302 310 321 325 327 251 282 296 282 300 324 267 257 297 305 327 343 122 286 5 9 59 6 289 175 105 98 205 241 141 114 118 117 115 112 112
267 270 281 291 298 301 301 296 294 295 306 308 314 71 273 326 226 281 291 352 328 333 267 287 359 8 10 53 6 9 290 210 282 214 135 91 182 224 135 122 128 122 118 116 118
274 274 281 292 305 315 314 301 291 292 312 341 219 2 276 242 217 299 255 304 315 325 356 41 44 23 28 70 193 283 11 342 5 278 168 62 162 153 155 129 137 134 129 125 127
278 273 280 297 314 323 333 339 16 355 134 203 207 205 284 231 199 261 251 291 312 24 275 12 58 288 237 222 64 90 82 81 262 343 77 186 162 191 179 125 141 136 133 133 137
297 277 284 306 308 319 320 279 219 39 304 240 245 256 272 259 0 286 243 359 37 278 305 26 124 263 55 62 73 67 51 357 306 351 47 152 226 221 87 153 153 142 137 142 135
320 283 290 309 316 318 289 265 316 326 48 294 215 202 224 142 256 232 99 73 290 4 17 130 218 66 84 46 51 49 85 353 267 329 347 55 339 181 49 116 112 129 144 152 159
353 295 296 311 312 321 272 328 310 117 47 277 193 260 189 142 72 335 30 88 6 331 123 125 289 96 72 74 110 25 254 343 324 47 278 86 258 308 171 112 144 155 153 159 164
357 300 284 304 312 313 330 334 340 72 12 240 211 200 158 134 157 326 67 51 62 308 69 283 121 86 77 67 342 230 327 310 260 265 35 359 73 299 25 139 194 49 111 93 124
353 288 279 298 301 337 348 334 24 48 259 261 163 154 116 172 148 188 168 45 287 27 23 243 294 53 148 106 78 359 8 353 32 89 40 260 137 335 319 265 47 87 102 148 66
354 298 262 266 259 338 345 32 46 138 297 219 181 163 172 227 168 168 165 87 153 63 356 13 356 359 51 32 8 38 44 347 4 12 225 346 59 219 262 129 133 140 135 87 78
353 314 267 257 275 311 350 53 148 256 263 289 181 164 185 195 204 177 153 141 49 96 98 118 336 9 12 131 164 332 129 143 265 304 279 346 122 235 219 136 119 116 110 90 70
352 326 276 250 238 306 69 79 211 239 326 349 12 140 258 222 144 128 136 58 33 67 126 87 309 37 98 128 112 323 42 184 115 350 37 252 24 353 212 153 89 83 96 67 19
346 331 270 189 234 141 78 231 247 249 294 16 48 40 21 336 94 122 102 315 96 49 95 176 19 327 291 63 7 135 180 40 14 309 306 296 203 223 230 237 87 90 89 48 15
18 15 297 199 177 55 161 228 289 264 79 70 63 51 26 36 21 62 45 8 33 52 62 63 107 285 33 119 227 21 23 61 113 139 171 277 282 218 221 118 118 118 203 188 79
3 360 45 154 59 80 180 208 262 302 166 74 109 81 85 22 44 72 117 103 4 93 77 14 140 268 240 272 208 173 175 130 116 260 180 153 266 48 124 130 126 155 52 61 93
4 266 336 209 177 275 283 283 283 191 61 66 43 86 120 82 61 114 109 278 42 86 158 173 10 11 345 357 358 17 261 165 115 74 206 145 259 62 73 72 71 69 43 166 222
50 351 324 31 109 47 315 284 279 315 120 102 136 93 78 71 136 158 146 187 87 93 133 90 120 156 193 221 229 294 300 284 138 116 224 216 245 5 33 39 348 346 55 295 358
66 274 205 325 329 336 298 305 359 360 7 76 53 159 164 183 293 326 87 90 46 132 60 103 184 214 248 256 262 267 273 288 218 209 164 265 137 99 51 353 338 27 13 5 32
70 42 351 296 304 346 338 286 333 299 214 249 172 215 146 180 177 173 131 139 186 198 147 32 257 252 286 288 295 296 288 279 280 115 131 136 138 176 219 249 75 331 8 38 37
354 355 105 287 333 6 30 321 303 338 263 270 188 128 88 217 144 157 167 160 165 161 182 151 151 88 268 305 336 322 271 227 125 67 130 130 163 208 352 19 43 7 40 29 72